(221) Eos
ephemeris date magn radius delta ra dec elong phase
Today5 Jul 202511.62.783 AU1.786 AU19h35m-12°24'166.0°5.1°
Opposition13 Jul 202511.52.777 AU1.768 AU19h28m-13°04'171.3°3.2°
(221) Eos - 2025-07-05
astro.vanbuitenen.nl


 
-1 year
-1 month
-1 day
Now
+1 day
+1 month
+1 year

The interactive orbit chart above shows the body's path through the solar system and its position at the given date. Green and blue lines are shown perpendicular to the ecliptic plane: Green if the path is above the ecliptic plane, blue if it is below. (Left-click and drag to rotate the view; Right-click and drag to move the view; Use scroll wheel to zoom in our out.)

The orbital elements of Eos are:

            e (Eccentricity)                : 0.1012016
            a (Semimajor axis)              : 3.0129160
            i (Inclination)                 : 10.88932
            Ω (Longitude of ascending node) : 141.71231
            ω (Argument of perihelion)      : 192.48734
            M (Mean anomaly)                : 311.25730
            Epoch                           : 2025 May 05

            L (Longitude of perihelion)     : 153.98167
            B (Latitude of perihelion)      : -2.34103
            P (Orbital period in years)     : 5.23            
        

The light curve chart below shows the estimated development of the minor planet's magnitude.


The all-sky chart below shows the path of the minor planet over the same period as the light curve. The current position is marked yellow.





The following chart shows the path of the minor planet in the next few days. The field of view is optimized for (~10x50) binoculars and finderscopes. A more printer-friendly version of the same chart can be found below.




Ephemerides:
Date       Time       RA (2000)    DEC (2000)    delta   radius  elong  phase   PA    magn
2025-07-05 00:00 UT   19 35 13.0   -12 24 21     1.786    2.783  166.0    5.1   221   11.6 
2025-07-05 22:46 UT   19 34 29.4   -12 28 31     1.783    2.782  166.9    4.8   218   11.6 
2025-07-06 00:00 UT   19 34 27.1   -12 28 45     1.783    2.782  166.9    4.7   217   11.6 
2025-07-07 00:00 UT   19 33 40.7   -12 33 14     1.780    2.782  167.7    4.4   214   11.6 
2025-07-08 00:00 UT   19 32 54.0   -12 37 50     1.777    2.781  168.5    4.2   210   11.6 
2025-07-09 00:00 UT   19 32 06.8   -12 42 31     1.775    2.780  169.2    3.9   205   11.6 
2025-07-10 00:00 UT   19 31 19.4   -12 47 18     1.773    2.779  169.9    3.7   200   11.5 
2025-07-11 00:00 UT   19 30 31.7   -12 52 10     1.771    2.779  170.4    3.5   194   11.5 
2025-07-12 00:00 UT   19 29 43.8   -12 57 06     1.770    2.778  170.9    3.3   187   11.5 
2025-07-13 00:00 UT   19 28 55.8   -13 02 08     1.769    2.777  171.2    3.2   180   11.5 
2025-07-14 00:00 UT   19 28 07.7   -13 07 15     1.768    2.777  171.3    3.2   173   11.5 
2025-07-15 00:00 UT   19 27 19.5   -13 12 26     1.767    2.776  171.3    3.2   165   11.5 
2025-07-16 00:00 UT   19 26 31.3   -13 17 41     1.767    2.775  171.2    3.2   158   11.5 
2025-07-17 00:00 UT   19 25 43.2   -13 23 00     1.766    2.775  170.9    3.3   150   11.5 
2025-07-18 00:00 UT   19 24 55.2   -13 28 23     1.767    2.774  170.5    3.5   144   11.5 
2025-07-19 00:00 UT   19 24 07.4   -13 33 50     1.767    2.773  169.9    3.7   138   11.5 
2025-07-20 00:00 UT   19 23 19.8   -13 39 20     1.768    2.773  169.3    3.9   132   11.5 
2025-07-21 00:00 UT   19 22 32.6   -13 44 53     1.769    2.772  168.6    4.2   128   11.6 
2025-07-22 00:00 UT   19 21 45.6   -13 50 29     1.770    2.771  167.8    4.4   124   11.6 
2025-07-23 00:00 UT   19 20 59.1   -13 56 08     1.771    2.771  167.0    4.7   120   11.6 
2025-07-24 00:00 UT   19 20 13.1   -14 01 50     1.773    2.770  166.1    5.1   117   11.6 
2025-07-25 00:00 UT   19 19 27.6   -14 07 33     1.775    2.769  165.2    5.4   114   11.6 
2025-07-26 00:00 UT   19 18 42.6   -14 13 19     1.777    2.769  164.2    5.7   112   11.6 
2025-07-27 00:00 UT   19 17 58.3   -14 19 06     1.780    2.768  163.3    6.1   110   11.7 
2025-07-28 00:00 UT   19 17 14.8   -14 24 55     1.783    2.767  162.3    6.4   108   11.7 
2025-07-29 00:00 UT   19 16 31.9   -14 30 45     1.786    2.767  161.3    6.8   106   11.7 
2025-07-30 00:00 UT   19 15 49.8   -14 36 36     1.789    2.766  160.3    7.1   104   11.7 
2025-07-31 00:00 UT   19 15 08.6   -14 42 28     1.793    2.765  159.2    7.5   103   11.7 
2025-08-01 00:00 UT   19 14 28.3   -14 48 20     1.797    2.765  158.2    7.8   102   11.8 
2025-08-02 00:00 UT   19 13 48.9   -14 54 13     1.801    2.764  157.2    8.2   101   11.8 
2025-08-03 00:00 UT   19 13 10.5   -15 00 06     1.805    2.764  156.1    8.5   100   11.8 
2025-08-04 00:00 UT   19 12 33.1   -15 05 59     1.809    2.763  155.1    8.9    99   11.8 


    Terminology:
            
    delta:  distance between minor planet and earth in AU
    radius: distance between minor planet and sun in AU
    magn:   magnitude (brightness) estimate    
    ra:     right ascension in hours (24h = 360deg)
    dec:    declination in degrees
    elong:  elongation in degrees (angle sun-earth-minor planet)    
    phase:  phase angle in degrees (angle sun-minor planet-earth)        
    AU:     Astronomical Unit (mean distance between earth and sun: 149597870.7 km
    

Orbital elements provided by the MPC (Minor Planet Center).
Calculations by a modified version of AAPlus, a C# implementation of the AA+ project by PJ Naughter from the algorithms presented in the book "Astronomical Algorithms" by Jean Meeus.
NGC2000 dso catalog and star labels from VizieR as provided by the Strasbourg astronomical Data Center.
Tycho2 catalog from the ESO archive.